Miscellaneous Local Product
Issued by NWS Hastings, NE

Home | Current Version | Previous Version | Graphics & Text | Print | Product List | Glossary On
Versions: 1 2 3 4 5 6 7 8 9 10 11 12 13 14 15 16 17 18 19 20 21 22 23 24 25 26 27 28 29 30 31 32 33 34 35 36 37 38 39 40 41 42 43 44 45 46 47 48 49 50
249
AXUS43 KGID 171402
MISGRI

GID CWA HOURLY WEATHER ROUNDUP
NATIONAL WEATHER SERVICE HASTINGS NE
800 AM CST FRI NOV 17 2017

NOTE: "FAIR" INDICATES FEW OR NO CLOUDS BELOW 12,000 FEET WITH NO
SIGNIFICANT WEATHER AND/OR OBSTRUCTIONS TO VISIBILITY.

...SOUTH CENTRAL NEBRASKA...

CITY           SKY/WX    TMP DP  RH WIND       PRES   REMARKS
GRAND ISLAND   CLOUDY    47  47 100 W3        29.60R FOG
KEARNEY        FOG       46  45  96 W7        29.62R VSB 3/4
HASTINGS       CLOUDY    50  47  89 S9        29.59F
ORD            FOG       31  30  96 S5        29.60S VSB<1/4 WCI  26
YORK           CLOUDY    50  50 100 S6        29.60F
AURORA         CLOUDY    52  49  90 SW6       29.59S
LEXINGTON      FOG       36  34  95 CALM      29.62R VSB 1/2
HOLDREGE       CLOUDY    41  41 100 NW6       29.61R FOG
HEBRON         CLOUDY    57  53  85 S6        29.59F

...NEBRASKA PANHANDLE...

CITY           SKY/WX    TMP DP  RH WIND       PRES   REMARKS
CHADRON        CLOUDY    38  30  73 CALM      29.70R
ALLIANCE       CLOUDY    29  26  89 N7        29.67R WCI  22
SCOTTSBLUFF    CLOUDY    41  26  55 VRB5      29.71R
SIDNEY         CLOUDY    34  27  75 W10       29.63S WCI  26

...WESTERN AND NORTH CENTRAL NEBRASKA...

CITY           SKY/WX    TMP DP  RH WIND       PRES   REMARKS
VALENTINE      PTCLDY    36  28  73 W3        29.65R
AINSWORTH      CLOUDY    37  31  81 NW6       29.63R WCI  32
ONEILL         MOCLDY    39  33  78 NW7       29.61R WCI  34
BROKEN BOW     CLEAR     37  34  89 NW7       29.62R WCI  32
NORTH PLATTE   PTCLDY    38  33  82 W3        29.63R
MCCOOK         PTCLDY    40  34  79 W7        29.59S

...EASTERN NEBRASKA...

CITY           SKY/WX    TMP DP  RH WIND       PRES   REMARKS
NORFOLK        MOCLDY    46  44  93 SE6       29.58F
SO SIOUX CITY  CLOUDY    46  38  73 SE9       29.62F
TEKAMAH        CLOUDY    49  40  71 SE5       29.64S
COLUMBUS       CLOUDY    47  43  86 NE3       29.63R
ALBION         CLOUDY    50  47  90 S5        29.60F
OMAHA EPPLEY   CLOUDY    54  47  77 S14       29.64S
OFFUTT AFB     CLOUDY    54  48  81 SE13      29.64F
MILLARD        CLOUDY    53  47  78 SE10      29.64F
LINCOLN        CLOUDY    55  50  83 SE6       29.63F
NEBRASKA CITY  CLOUDY    54  54  99 S14       29.64F
BEATRICE       CLOUDY    58  55  89 S10       29.61S FOG
FALLS CITY     CLOUDY    56  53  90 S14       29.66F

...NORTHERN KANSAS...

CITY           SKY/WX    TMP DP  RH WIND       PRES   REMARKS
GOODLAND       CLOUDY    57  30  35 SW17      29.62S
HILL CITY      CLOUDY    41  40  96 E3        29.61R FOG
NORTON         SUNNY     37  34  87 SW8       29.58S WCI  31
PHILLIPSBURG   FOG       37  37 100 W5        29.60S VSB 0   WCI  34
SMITH CENTER   FOG       43  43 100 S6        29.60F VSB 0
HAYS           CLOUDY    46  44  93 SW15      29.62R
RUSSELL        CLOUDY    52  52 100 S10       29.61S
CONCORDIA      PTCLDY    56  55  97 S13       29.59F
SALINA         CLOUDY    62  58  86 S10       29.63F
TOPEKA         CLOUDY    58  56  93 S12       29.70F FOG



USA.gov is the U.S. government's official web portal to all federal, state and local government web resources and services.